DW9558 Weather Reports


Display with metric or nautical units.
time (UTC)temp
F
wind
direction
speed
MPH
gust
MPH
rain 1hr
in
rain 24hr
in
rain mn
in
humidity
%
barometer
mb
20260510123011 56 110 0.0 3.0 0.00 0.00 0.00 86 1018.3
20260510121509 56 110 1.0 3.0 0.00 0.00 0.00 86 1018.3
20260510120007 56 110 0.0 3.0 0.00 0.00 0.00 86 1018.3
20260510114507 56 110 0.0 6.0 0.00 0.00 0.00 85 1018.3
20260510113005 56 110 0.0 8.0 0.00 0.00 0.00 84 1018.2
20260510111503 57 110 0.0 6.0 0.00 0.00 0.00 84 1018.2
20260510110001 57 110 1.0 8.0 0.00 0.00 0.00 84 1018.1
20260510104614 57 110 1.0 6.0 0.00 0.00 0.00 83 1017.9
20260510103058 58 110 0.0 7.0 0.00 0.00 0.00 83 1018.0
20260510101556 58 110 1.0 6.0 0.00 0.00 0.00 82 1018.1
20260510094553 59 110 1.0 6.0 0.00 0.00 0.00 81 1017.9
20260510093051 59 110 0.0 6.0 0.00 0.00 0.00 80 1017.8
20260510091549 60 110 0.0 4.0 0.00 0.00 0.00 79 1017.8
20260510090047 60 110 0.0 6.0 0.00 0.00 0.00 78 1017.8
20260510084544 61 110 0.0 6.0 0.00 0.00 0.00 77 1017.7
20260510083042 62 110 1.0 6.0 0.00 0.00 0.00 76 1017.7
20260510081545 62 110 0.0 3.0 0.00 0.00 0.00 76 1017.7
20260510080045 62 110 0.0 3.0 0.00 0.00 0.00 76 1017.8
20260510074540 62 110 0.0 4.0 0.00 0.00 0.00 75 1017.7
20260510073038 62 110 0.0 2.0 0.00 0.00 0.00 75 1017.7
20260510071536 62 110 0.0 6.0 0.00 0.00 0.00 74 1017.8
20260510070035 62 110 0.0 6.0 0.00 0.00 0.00 74 1017.8
20260510064533 63 110 0.0 7.0 0.00 0.00 0.00 73 1017.7
20260510063033 63 110 0.0 4.0 0.00 0.00 0.00 72 1017.6
20260510061536 64 110 1.0 4.0 0.00 0.00 0.00 71 1017.6
20260510060045 64 110 0.0 4.0 0.00 0.00 0.00 70 1017.5
20260510054531 65 110 0.0 3.0 0.00 0.00 0.00 68 1017.6
20260510053032 66 110 0.0 4.0 0.00 0.00 0.00 67 1017.5
20260510051534 66 110 0.0 6.0 0.00 0.00 0.00 66 1017.3
20260510050030 67 110 1.0 4.0 0.00 0.00 0.00 65 1017.2
20260510044529 68 110 0.0 3.0 0.00 0.00 0.00 64 1017.1
20260510043029 68 110 0.0 3.0 0.00 0.00 0.00 64 1017.0
20260510041531 69 110 0.0 6.0 0.00 0.00 0.00 63 1016.9
20260510040028 70 110 1.0 4.0 0.00 0.00 0.00 63 1016.8
20260510034527 71 109 0.0 8.0 0.00 0.00 0.00 62 1016.7
20260510033026 72 109 0.0 4.0 0.00 0.00 0.00 60 1016.6
20260510031540 74 109 3.0 8.0 0.00 0.00 0.00 58 1016.4
20260510030026 75 109 2.0 6.0 0.00 0.00 0.00 57 1016.4
20260510024525 76 109 0.0 7.0 0.00 0.00 0.00 57 1016.2
20260510023041 78 109 1.0 11.0 0.00 0.00 0.00 55 1016.1
20260510021524 79 104 0.0 7.0 0.00 0.00 0.00 55 1016.0
20260510020024 80 104 1.0 7.0 0.00 0.00 0.00 53 1016.1
20260510014523 81 104 0.0 4.0 0.00 0.00 0.00 53 1016.1
20260510013023 82 104 2.0 7.0 0.00 0.00 0.00 51 1016.1
20260510011525 83 103 1.0 4.0 0.00 0.00 0.00 51 1016.1
20260510010026 85 103 2.0 7.0 0.00 0.00 0.00 50 1016.0
20260510004521 85 103 1.0 6.0 0.00 0.00 0.00 47 1016.1
20260510003023 87 102 1.0 9.0 0.00 0.00 0.00 46 1016.1
20260510001520 89 98 1.0 7.0 0.00 0.00 0.00 43 1016.1
20260510000018 89 98 0.0 4.0 0.00 0.00 0.00 41 1016.2
20260509234519 89 98 1.0 6.0 0.00 0.00 0.00 40 1016.3
20260509233016 90 97 2.0 6.0 0.00 0.00 0.00 39 1016.4
20260509231515 91 97 1.0 6.0 0.00 0.00 0.00 38 1016.5
20260509230012 91 97 2.0 6.0 0.00 0.00 0.00 31 1016.6
20260509224507 91 99 0.0 3.0 0.00 0.00 0.00 32 1016.8
20260509223004 90 99 1.0 6.0 0.00 0.00 0.00 32 1017.0
20260509221501 89 98 1.0 6.0 0.00 0.00 0.00 35 1017.2
20260509220059 89 99 0.0 4.0 0.00 0.00 0.00 36 1017.2
20260509214556 88 100 1.0 3.0 0.00 0.00 0.00 37 1017.4
20260509213106 88 100 3.0 8.0 0.00 0.00 0.00 38 1017.7
20260509211611 87 95 0.0 4.0 0.00 0.00 0.00 37 1018.0
20260509210056 87 94 2.0 7.0 0.00 0.00 0.00 36 1018.1
20260509204557 86 95 0.0 6.0 0.00 0.00 0.00 38 1018.2
20260509203046 85 95 0.0 7.0 0.00 0.00 0.00 40 1018.4
20260509201536 84 95 3.0 8.0 0.00 0.00 0.00 42 1018.5
20260509200032 83 95 0.0 6.0 0.00 0.00 0.00 47 1018.6
20260509194529 82 95 1.0 4.0 0.00 0.00 0.00 47 1018.8
20260509193024 81 95 0.0 4.0 0.00 0.00 0.00 51 1019.0
20260509191520 80 95 4.0 7.0 0.00 0.00 0.00 50 1019.3
20260509190022 79 95 0.0 8.0 0.00 0.00 0.00 56 1019.4
20260509184512 78 95 3.0 7.0 0.00 0.00 0.00 57 1019.6
20260509183013 77 95 0.0 9.0 0.00 0.00 0.00 59 1019.7
20260509181504 76 95 1.0 3.0 0.00 0.00 0.00 61 1019.8
20260509180001 75 95 1.0 6.0 0.00 0.00 0.00 61 1020.0
20260509174557 74 95 0.0 4.0 0.00 0.00 0.00 62 1020.1
20260509173106 72 95 1.0 3.0 0.00 0.00 0.00 63 1020.0
20260509171554 71 95 0.0 4.0 0.00 0.00 0.00 64 1020.1
20260509170046 70 95 1.0 3.0 0.00 0.00 0.00 66 1020.2
20260509164543 68 95 0.0 4.0 0.00 0.00 0.00 68 1020.1
20260509163049 67 95 1.0 4.0 0.00 0.00 0.00 69 1020.3
20260509161532 66 95 1.0 3.0 0.00 0.00 0.00 71 1020.4
20260509160028 64 95 0.0 2.0 0.00 0.00 0.00 74 1020.4
20260509154523 63 95 0.0 2.0 0.00 0.00 0.00 75 1020.3
20260509153022 61 95 0.0 2.0 0.00 0.00 0.00 78 1020.1
20260509151514 60 95 0.0 4.0 0.00 0.00 0.00 80 1020.2
20260509150010 59 95 2.0 4.0 0.00 0.00 0.00 80 1020.3
20260509144506 58 95 0.0 3.0 0.00 0.00 0.00 82 1020.3
20260509143002 58 95 0.0 0.0 0.00 0.00 0.00 83 1020.2
20260509141600 57 95 0.0 0.0 0.00 0.00 0.00 84 1020.0
20260509140117 56 95 0.0 1.0 0.00 0.00 0.00 85 1020.1
20260509134559 56 95 0.0 2.0 0.00 0.00 0.00 86 1020.0
20260509133104 56 95 0.0 4.0 0.00 0.00 0.00 86 1020.0
20260509131555 56 95 0.0 0.0 0.00 0.00 0.00 86 1019.8
20260509130055 56 95 0.0 0.0 0.00 0.00 0.00 85 1019.7
20260509124605 56 95 0.0 3.0 0.00 0.00 0.00 85 1019.7